This is the latest recevied weather packets stored in our database for station/object KC1IUC-13. If no packets are shown the sender has not sent any weather packets the latest 10 day(s).
| Time | Temp. | Humidity | Pressure | Rain* | Wind** | Luminosity | Snow |
|---|---|---|---|---|---|---|---|
| 1777846144 | 12.22° C | 43% | 1005.6 hPa | 0 mm | - | 20 W/m² | - |
| 1777845604 | 12.22° C | 43% | 1005.6 hPa | 0 mm | - | 22 W/m² | - |
| 1777845244 | 12.22° C | 43% | 1005.6 hPa | 0 mm | - | 24 W/m² | - |
| 1777844704 | 12.78° C | 43% | 1005.6 hPa | 0 mm | - | 22 W/m² | - |
| 1777844164 | 12.78° C | 43% | 1005.2 hPa | 0 mm | - | 28 W/m² | - |
| 1777843624 | 12.78° C | 43% | 1005.6 hPa | 0 mm | - | 32 W/m² | - |
| 1777843084 | 12.78° C | 43% | 1005.6 hPa | 0 mm | - | 40 W/m² | - |
| 1777842544 | 12.78° C | 43% | 1005.6 hPa | 0 mm | - | 56 W/m² | - |
| 1777842004 | 12.78° C | 43% | 1005.6 hPa | 0 mm | - | 36 W/m² | - |
| 1777841644 | 12.78° C | 43% | 1005.2 hPa | 0 mm | - | 41 W/m² | - |
| 1777841104 | 13.33° C | 43% | 1005.6 hPa | 0 mm | - | 38 W/m² | - |
| 1777840564 | 12.78° C | 43% | 1005.6 hPa | 0 mm | - | 61 W/m² | - |
| 1777840024 | 13.33° C | 43% | 1005.6 hPa | 0 mm | - | 62 W/m² | - |
| 1777839484 | 13.33° C | 43% | 1005.6 hPa | 0 mm | - | 520 W/m² | - |
| 1777838944 | 13.89° C | 44% | 1005.6 hPa | 0 mm | - | 547 W/m² | - |
| 1777838404 | 13.89° C | 44% | 1005.6 hPa | 0 mm | - | 576 W/m² | - |
| 1777838044 | 13.89° C | 44% | 1005.9 hPa | 0 mm | - | 596 W/m² | - |
| 1777837504 | 14.44° C | 45% | 1005.6 hPa | 0 mm | - | 601 W/m² | - |
| 1777836964 | 14.44° C | 46% | 1005.9 hPa | 0 mm | - | 637 W/m² | - |
| 1777836424 | 14.44° C | 46% | 1005.9 hPa | 0 mm | - | 652 W/m² | - |
| 1777835884 | 14.44° C | 46% | 1005.9 hPa | 0 mm | - | 164 W/m² | - |
| 1777835344 | 14.44° C | 47% | 1005.9 hPa | 0 mm | - | 748 W/m² | - |
| 1777834804 | 14.44° C | 48% | 1005.9 hPa | 0 mm | - | 631 W/m² | - |
| 1777834444 | 14.44° C | 49% | 1005.9 hPa | 0 mm | - | 719 W/m² | - |
| 1777833904 | 12.22° C | 48% | 1005.9 hPa | 0 mm | - | 516 W/m² | - |
* Rain latest hour (hover to see other rain measurements)
** Current wind speed in m/s (hover to see current wind gust speed)